TimeCST,TemperatureF,Dew PointF,Humidity,Sea Level PressureIn,VisibilityMPH,Wind Direction,Wind SpeedMPH,Gust SpeedMPH,PrecipitationIn,Events,Conditions,WindDirDegrees,DateUTC
12:53 AM,26.1,12.9,58,30.07,10.0,SE,10.4,-,N/A,,Clear,140,2013-02-18 06:53:00
1:53 AM,27.0,14.0,58,30.04,10.0,SE,10.4,-,N/A,,Clear,130,2013-02-18 07:53:00
2:53 AM,27.0,15.1,61,30.02,10.0,SE,10.4,-,N/A,,Clear,140,2013-02-18 08:53:00
3:53 AM,28.9,15.1,56,29.98,10.0,SSE,10.4,21.9,N/A,,Clear,150,2013-02-18 09:53:00
4:53 AM,28.9,16.0,58,29.95,10.0,SSE,12.7,-,N/A,,Clear,150,2013-02-18 10:53:00
5:53 AM,30.0,17.1,59,29.92,10.0,SSE,10.4,-,N/A,,Clear,150,2013-02-18 11:53:00
6:53 AM,30.0,18.0,61,29.90,10.0,SSE,10.4,17.3,N/A,,Clear,160,2013-02-18 12:53:00
8:53 AM,39.9,25.0,55,29.86,10.0,South,16.1,25.3,N/A,,Clear,170,2013-02-18 14:53:00
9:53 AM,44.1,28.0,53,29.83,10.0,South,17.3,26.5,N/A,,Clear,180,2013-02-18 15:53:00
10:53 AM,48.0,32.0,54,29.80,10.0,South,15.0,-,N/A,,Clear,190,2013-02-18 16:53:00
11:53 AM,52.0,35.1,53,29.78,10.0,South,20.7,31.1,N/A,,Clear,190,2013-02-18 17:53:00
12:53 PM,53.1,37.9,57,29.74,10.0,SSW,19.6,36.8,N/A,,Clear,200,2013-02-18 18:53:00
1:41 PM,51.8,39.2,62,29.70,10.0,South,17.3,32.2,N/A,,Overcast,190,2013-02-18 19:41:00
1:53 PM,51.1,39.9,66,29.71,10.0,South,19.6,27.6,N/A,,Overcast,190,2013-02-18 19:53:00
2:53 PM,51.1,42.1,71,29.68,10.0,South,16.1,28.8,N/A,,Overcast,190,2013-02-18 20:53:00
3:53 PM,50.0,42.1,74,29.66,10.0,South,20.7,32.2,N/A,,Overcast,190,2013-02-18 21:53:00
4:53 PM,48.0,44.1,86,29.64,5.0,South,17.3,27.6,0.01,Rain,Light Rain,190,2013-02-18 22:53:00
5:53 PM,48.0,42.1,80,29.61,10.0,South,19.6,29.9,0.01,,Overcast,190,2013-02-18 23:53:00
6:03 PM,48.2,42.8,82,29.59,10.0,South,18.4,31.1,N/A,,Overcast,180,2013-02-19 00:03:00
6:19 PM,46.4,42.8,87,29.58,6.0,South,24.2,36.8,0.01,,Haze,180,2013-02-19 00:19:00
6:53 PM,46.0,41.0,83,29.58,10.0,South,19.6,33.4,0.01,,Overcast,180,2013-02-19 00:53:00
7:53 PM,45.0,42.1,90,29.55,7.0,South,24.2,38.0,0.01,Rain,Light Rain,180,2013-02-19 01:53:00
8:26 PM,44.6,42.8,93,29.50,10.0,South,23.0,33.4,0.04,,Overcast,180,2013-02-19 02:26:00
8:34 PM,44.6,42.8,93,29.50,10.0,South,20.7,29.9,0.04,Rain,Light Rain,180,2013-02-19 02:34:00
8:53 PM,45.0,42.1,90,29.50,7.0,South,21.9,32.2,0.04,Rain,Light Rain,180,2013-02-19 02:53:00
9:53 PM,45.0,43.0,93,29.47,8.0,South,25.3,36.8,0.02,,Overcast,180,2013-02-19 03:53:00
10:53 PM,43.0,39.9,89,29.49,8.0,West,25.3,31.1,0.08,Rain,Light Rain,270,2013-02-19 04:53:00
11:53 PM,34.0,32.0,92,29.54,6.0,West,20.7,27.6,0.01,Snow,Light Snow,260,2013-02-19 05:53:00